GW1508 Weather Reports


time (UTC)temp
C
wind
direction
speed
KPH
gust
KPH
rain 1hr
cm
rain 24hr
cm
rain mn
cm
humidity
%
barometer
mb
20260509223508 0 72 0.0 1.6 0.00 0.20 0.00 94 1024.2
20260509220035 -1 72 0.0 0.0 0.00 0.20 0.00 94 1024.1
20260509212840 0 72 0.0 0.0 0.00 0.20 0.20 94 1024.0
20260509210018 0 72 0.0 0.0 0.00 0.20 0.20 94 1024.2
20260509202846 0 72 0.0 0.0 0.00 0.20 0.20 94 1024.1
20260509201336 0 72 0.0 0.0 0.00 0.20 0.20 93 1024.2
20260509194342 0 72 0.0 0.0 0.00 0.20 0.20 92 1023.8
20260509192838 0 72 0.0 0.0 0.00 0.20 0.20 92 1023.5
20260509185842 2 72 0.0 0.0 0.00 0.20 0.20 91 1023.3
20260509184336 2 72 0.0 0.0 0.00 0.20 0.20 90 1023.1
20260509181346 5 72 0.0 0.0 0.00 0.20 0.20 91 1022.7
20260509175838 6 72 0.0 0.0 0.00 0.20 0.20 92 1022.9
20260509172849 7 72 0.0 1.6 0.00 0.20 0.20 94 1022.6
20260509171335 7 72 0.0 6.4 0.00 0.20 0.20 94 1022.5
20260509164344 7 80 1.6 4.8 0.00 0.20 0.20 94 1022.4
20260509161348 7 76 1.6 6.4 0.00 0.20 0.20 94 1022.5
20260509155836 7 74 1.6 3.2 0.00 0.20 0.20 94 1022.7
20260509152844 7 64 0.0 3.2 0.13 0.20 0.20 94 1022.8
20260509151333 7 64 0.0 6.4 0.15 0.20 0.20 94 1022.8
20260509144342 7 315 0.0 6.4 0.15 0.15 0.15 94 1022.8
20260509142623 7 263 0.0 3.2 0.05 0.08 0.08 93 1022.9
20260509135841 8 49 0.0 6.4 0.00 0.03 0.03 92 1023.0
20260509134335 8 84 1.6 9.7 0.00 0.03 0.03 92 1023.0
20260509131344 8 88 1.6 9.7 0.00 0.03 0.03 91 1023.0
20260509124410 8 76 3.2 12.9 0.00 0.03 0.03 91 1023.1
20260509122856 9 22 3.2 11.3 0.00 0.03 0.03 90 1023.1
20260509115908 8 86 1.6 8.0 0.00 0.03 0.03 86 1023.2
20260509112914 10 70 4.8 9.7 0.00 0.03 0.03 85 1023.4
20260509111405 9 148 1.6 4.8 0.00 0.03 0.03 87 1023.6
20260509105900 9 86 1.6 8.0 0.00 0.03 0.03 88 1023.7
20260509102909 7 68 0.0 8.0 0.00 0.03 0.03 88 1024.1
20260509101404 8 161 0.0 6.4 0.00 0.03 0.03 88 1024.1
20260509094411 7 162 0.0 6.4 0.00 0.03 0.03 83 1024.2
20260509085838 8 189 0.0 4.8 0.00 0.03 0.03 82 1024.1
20260509082841 9 102 1.6 8.0 0.00 0.03 0.03 85 1024.0
20260509081335 8 137 1.6 9.7 0.00 0.03 0.03 88 1024.0
20260509074342 7 150 1.6 8.0 0.00 0.03 0.03 91 1024.4
20260509071344 7 259 0.0 3.2 0.00 0.03 0.03 92 1024.2
20260509064522 6 146 0.0 6.4 0.03 0.03 0.03 94 1024.1
20260509062825 3 110 0.0 1.6 0.03 0.03 0.03 93 1023.9
20260509055838 1 110 0.0 1.6 0.03 0.03 0.03 93 1024.0
20260509053021 -3 110 0.0 1.6 0.00 0.00 0.00 93 1024.6
20260509051344 -5 110 0.0 0.0 0.00 0.00 0.00 93 1024.5
20260509045837 -6 110 0.0 0.0 0.00 0.00 0.00 94 1024.1
20260509042842 -7 110 0.0 0.0 0.00 0.00 0.00 93 1024.0
20260509041333 -8 110 0.0 0.0 0.00 0.00 0.00 93 1023.8
20260509034344 -7 110 0.0 0.0 0.00 0.00 0.00 93 1023.8
20260509031349 -7 110 0.0 0.0 0.00 0.00 0.00 93 1023.6
20260509025843 -7 110 0.0 0.0 0.00 0.00 0.00 93 1023.6
20260509024338 -7 110 0.0 0.0 0.00 0.00 0.00 93 1023.7
20260509021339 -6 110 0.0 0.0 0.00 0.00 0.00 93 1023.7
20260509015833 -6 110 0.0 0.0 0.00 0.00 0.00 94 1023.5
20260509012850 -5 110 0.0 0.0 0.00 0.00 0.00 94 1023.3
20260509011337 -5 110 0.0 0.0 0.00 0.00 0.00 94 1023.3
20260509004344 -4 110 0.0 0.0 0.00 0.00 0.00 94 1023.2
20260509002835 -4 110 0.0 0.0 0.00 0.00 0.00 94 1023.3
20260508235841 -4 110 0.0 0.0 0.00 0.00 0.00 94 1023.0
20260508232841 -5 110 0.0 0.0 0.00 0.00 0.00 93 1023.0
20260508230326 -4 110 0.0 0.0 0.00 0.00 0.00 93 1023.0
20260508224344 -4 110 0.0 0.0 0.00 0.00 0.00 93 1022.8